TimeEST,TemperatureF,Dew PointF,Humidity,Sea Level PressureIn,VisibilityMPH,Wind Direction,Wind SpeedMPH,Gust SpeedMPH,PrecipitationIn,Events,Conditions,WindDirDegrees,DateUTC
12:53 AM,30.0,19.9,66,29.89,10.0,NNW,9.2,-,N/A,,Overcast,330,2013-03-05 05:53:00
2:53 AM,28.9,19.9,69,29.91,10.0,NW,4.6,-,N/A,,Clear,310,2013-03-05 07:53:00
3:53 AM,28.9,19.9,69,29.93,10.0,NNW,3.5,-,N/A,,Clear,340,2013-03-05 08:53:00
4:53 AM,28.0,21.0,75,29.95,10.0,North,4.6,-,N/A,,Clear,360,2013-03-05 09:53:00
5:53 AM,28.9,21.0,72,29.97,10.0,NW,3.5,-,N/A,,Clear,320,2013-03-05 10:53:00
6:53 AM,28.9,21.9,75,29.98,10.0,Calm,Calm,-,N/A,,Clear,0,2013-03-05 11:53:00
7:53 AM,30.9,21.9,69,30.00,10.0,NW,5.8,-,N/A,,Clear,320,2013-03-05 12:53:00
8:53 AM,35.1,21.9,59,30.00,10.0,North,8.1,-,N/A,,Clear,360,2013-03-05 13:53:00
9:53 AM,37.9,23.0,55,30.00,10.0,North,8.1,-,N/A,,Clear,350,2013-03-05 14:53:00
10:53 AM,39.9,23.0,51,29.99,10.0,NNW,10.4,17.3,N/A,,Clear,340,2013-03-05 15:53:00
11:53 AM,41.0,24.1,51,29.99,10.0,NW,9.2,-,N/A,,Clear,310,2013-03-05 16:53:00
12:53 PM,43.0,24.1,47,29.98,10.0,NW,5.8,-,N/A,,Clear,320,2013-03-05 17:53:00
1:53 PM,45.0,24.1,44,29.98,10.0,Variable,5.8,-,N/A,,Clear,0,2013-03-05 18:53:00
2:53 PM,46.0,23.0,40,29.99,10.0,NNE,5.8,-,N/A,,Clear,30,2013-03-05 19:53:00
3:53 PM,45.0,24.1,44,29.99,10.0,NNE,6.9,-,N/A,,Clear,30,2013-03-05 20:53:00
4:53 PM,44.1,24.1,45,29.99,10.0,North,5.8,-,N/A,,Clear,10,2013-03-05 21:53:00
5:53 PM,42.1,24.1,49,30.00,10.0,North,5.8,-,N/A,,Overcast,350,2013-03-05 22:53:00
6:53 PM,41.0,24.1,51,30.02,10.0,North,3.5,-,N/A,,Overcast,350,2013-03-05 23:53:00
7:53 PM,41.0,25.0,53,30.03,10.0,North,3.5,-,N/A,,Overcast,360,2013-03-06 00:53:00
8:53 PM,39.9,25.0,55,30.02,10.0,Calm,Calm,-,N/A,,Overcast,0,2013-03-06 01:53:00
9:53 PM,39.0,26.1,60,30.02,10.0,Calm,Calm,-,N/A,,Overcast,0,2013-03-06 02:53:00
10:53 PM,37.9,26.1,62,30.01,10.0,ENE,4.6,-,N/A,,Overcast,70,2013-03-06 03:53:00
11:53 PM,37.0,27.0,67,30.01,10.0,East,3.5,-,N/A,,Overcast,90,2013-03-06 04:53:00